Time,TemperatureF,DewpointF,PressureIn,WindDirection,WindDirectionDegrees,WindSpeedMPH,WindSpeedGustMPH,Humidity,HourlyPrecipIn,Conditions,Clouds,dailyrainin,SoftwareType,DateUTC
2013-04-04 00:02:00,49.1,33.6,30.00,SE,135,0.0,-999.0,55,-99.99,,,0.00,Acu-Link.com,2013-04-04 04:02:00,
2013-04-04 00:17:00,48.9,31.1,29.99,SE,135,0.0,-999.0,50,-99.99,,,0.00,Acu-Link.com,2013-04-04 04:17:00,
2013-04-04 00:32:00,48.7,32.3,29.99,East,90,0.0,-999.0,53,-99.99,,,0.00,Acu-Link.com,2013-04-04 04:32:00,
2013-04-04 00:47:00,48.2,35.8,30.00,ESE,112,0.0,-999.0,62,-99.99,,,0.00,Acu-Link.com,2013-04-04 04:47:00,
2013-04-04 01:02:00,47.3,40.5,29.99,ESE,112,0.0,-999.0,77,-99.99,,,0.00,Acu-Link.com,2013-04-04 05:02:00,
2013-04-04 01:17:00,46.6,41.7,29.99,SSE,157,0.0,-999.0,83,-99.99,,,0.00,Acu-Link.com,2013-04-04 05:17:00,
2013-04-04 01:33:00,45.7,42.1,29.99,East,90,0.0,-999.0,87,-99.99,,,0.00,Acu-Link.com,2013-04-04 05:33:00,
2013-04-04 01:48:00,45.5,43.0,29.99,ESE,112,0.0,-999.0,91,-99.99,,,0.01,Acu-Link.com,2013-04-04 05:48:00,
2013-04-04 02:03:00,45.3,43.4,29.99,SE,135,0.0,-999.0,93,-99.99,,,0.01,Acu-Link.com,2013-04-04 06:03:00,
2013-04-04 02:18:00,45.3,44.0,29.99,SE,135,0.0,-999.0,95,-99.99,,,0.01,Acu-Link.com,2013-04-04 06:18:00,
2013-04-04 02:33:00,45.3,44.0,29.98,SE,135,0.0,-999.0,95,-99.99,,,0.02,Acu-Link.com,2013-04-04 06:33:00,
2013-04-04 02:48:00,45.3,44.5,29.97,East,90,0.0,-999.0,97,-99.99,,,0.04,Acu-Link.com,2013-04-04 06:48:00,
2013-04-04 03:03:00,45.3,45.0,29.97,ENE,67,0.0,-999.0,99,-99.99,,,0.05,Acu-Link.com,2013-04-04 07:03:00,
2013-04-04 04:04:00,45.1,44.8,29.95,ESE,112,0.0,-999.0,99,-99.99,,,0.08,Acu-Link.com,2013-04-04 08:04:00,
2013-04-04 04:20:00,45.1,44.8,29.95,ESE,112,0.0,-999.0,99,-99.99,,,0.08,Acu-Link.com,2013-04-04 08:20:00,
2013-04-04 04:35:00,45.1,44.8,29.95,ESE,112,0.0,-999.0,99,-99.99,,,0.08,Acu-Link.com,2013-04-04 08:35:00,
2013-04-04 04:50:00,45.0,44.7,29.94,SE,135,0.0,-999.0,99,-99.99,,,0.08,Acu-Link.com,2013-04-04 08:50:00,
2013-04-04 05:05:00,45.0,44.7,29.93,ESE,112,0.0,-999.0,99,-99.99,,,0.11,Acu-Link.com,2013-04-04 09:05:00,
2013-04-04 05:20:00,44.6,44.3,29.92,ESE,112,0.0,-999.0,99,-99.99,,,0.14,Acu-Link.com,2013-04-04 09:20:00,
2013-04-04 05:35:00,44.1,43.8,29.91,North,0,0.0,-999.0,99,-99.99,,,0.16,Acu-Link.com,2013-04-04 09:35:00,
2013-04-04 06:06:00,43.3,42.8,29.91,North,0,0.0,-999.0,98,-99.99,,,0.17,Acu-Link.com,2013-04-04 10:06:00,
2013-04-04 06:51:00,42.8,42.5,29.91,ESE,112,0.0,-999.0,99,-99.99,,,0.25,Acu-Link.com,2013-04-04 10:51:00,
2013-04-04 07:08:00,42.8,42.5,29.92,North,0,0.0,-999.0,99,-99.99,,,0.29,Acu-Link.com,2013-04-04 11:08:00,
2013-04-04 07:26:00,42.6,42.3,29.92,North,0,1.1,-999.0,99,-99.99,,,0.32,Acu-Link.com,2013-04-04 11:26:00,
2013-04-04 07:41:00,42.4,42.1,29.91,NNW,337,2.2,-999.0,99,-99.99,,,0.49,Acu-Link.com,2013-04-04 11:41:00,
2013-04-04 07:56:00,42.3,42.0,29.93,ENE,67,0.0,-999.0,99,-99.99,,,0.60,Acu-Link.com,2013-04-04 11:56:00,
2013-04-04 08:12:00,42.1,41.8,29.92,NE,45,0.0,-999.0,99,-99.99,,,0.75,Acu-Link.com,2013-04-04 12:12:00,
2013-04-04 08:27:00,42.1,41.8,29.92,North,0,2.2,-999.0,99,-99.99,,,0.85,Acu-Link.com,2013-04-04 12:27:00,
2013-04-04 08:42:00,41.9,41.6,29.92,NNW,337,2.2,-999.0,99,-99.99,,,0.91,Acu-Link.com,2013-04-04 12:42:00,
2013-04-04 08:57:00,41.7,41.4,29.93,ENE,67,1.1,-999.0,99,-99.99,,,1.00,Acu-Link.com,2013-04-04 12:57:00,
2013-04-04 09:12:00,41.7,41.4,29.93,NNE,22,1.7,-999.0,99,-99.99,,,1.14,Acu-Link.com,2013-04-04 13:12:00,
2013-04-04 09:27:00,41.7,41.4,29.93,NNE,22,1.1,-999.0,99,-99.99,,,1.15,Acu-Link.com,2013-04-04 13:27:00,
2013-04-04 09:42:00,41.7,41.4,29.93,North,0,0.0,-999.0,99,-99.99,,,1.16,Acu-Link.com,2013-04-04 13:42:00,
2013-04-04 09:57:00,41.9,41.6,29.93,NNW,337,1.1,-999.0,99,-99.99,,,1.17,Acu-Link.com,2013-04-04 13:57:00,
2013-04-04 10:27:00,42.1,41.8,29.92,NNE,22,2.2,-999.0,99,-99.99,,,1.19,Acu-Link.com,2013-04-04 14:27:00,
2013-04-04 10:42:00,42.1,41.8,29.92,NNE,22,2.2,-999.0,99,-99.99,,,1.23,Acu-Link.com,2013-04-04 14:42:00,
2013-04-04 10:57:00,42.3,42.0,29.92,East,90,0.0,-999.0,99,-99.99,,,1.27,Acu-Link.com,2013-04-04 14:57:00,
2013-04-04 11:12:00,42.3,42.0,29.92,NE,45,1.7,-999.0,99,-99.99,,,1.32,Acu-Link.com,2013-04-04 15:12:00,
2013-04-04 11:27:00,42.4,42.1,29.93,SE,135,0.0,-999.0,99,-99.99,,,1.35,Acu-Link.com,2013-04-04 15:27:00,
2013-04-04 11:59:00,43.2,42.9,29.94,North,0,0.0,-999.0,99,-99.99,,,1.45,Acu-Link.com,2013-04-04 15:59:00,
2013-04-04 12:15:00,43.3,43.0,29.94,NNE,22,1.1,-999.0,99,-99.99,,,1.48,Acu-Link.com,2013-04-04 16:15:00,
2013-04-04 12:30:00,43.3,43.0,29.93,NNW,337,1.7,-999.0,99,-99.99,,,1.50,Acu-Link.com,2013-04-04 16:30:00,
2013-04-04 13:15:00,44.8,44.5,29.92,NNW,337,1.7,-999.0,99,-99.99,,,1.63,Acu-Link.com,2013-04-04 17:15:00,
2013-04-04 13:30:00,44.8,44.5,29.91,NNE,22,2.7,-999.0,99,-99.99,,,1.64,Acu-Link.com,2013-04-04 17:30:00,
2013-04-04 13:46:00,45.1,44.8,29.90,NE,45,3.2,-999.0,99,-99.99,,,1.64,Acu-Link.com,2013-04-04 17:46:00,
2013-04-04 14:46:00,45.7,45.2,29.88,WNW,292,1.7,-999.0,98,-99.99,,,1.65,Acu-Link.com,2013-04-04 18:46:00,
2013-04-04 15:01:00,45.3,45.0,29.88,North,0,2.2,-999.0,99,-99.99,,,1.65,Acu-Link.com,2013-04-04 19:01:00,
2013-04-04 15:16:00,45.7,45.4,29.87,NNW,337,0.0,-999.0,99,-99.99,,,1.66,Acu-Link.com,2013-04-04 19:16:00,
2013-04-04 15:31:00,45.7,45.4,29.86,NNW,337,1.7,-999.0,99,-99.99,,,1.66,Acu-Link.com,2013-04-04 19:31:00,
2013-04-04 15:46:00,45.9,45.6,29.86,North,0,0.0,-999.0,99,-99.99,,,1.67,Acu-Link.com,2013-04-04 19:46:00,
2013-04-04 16:17:00,45.1,44.8,29.85,WNW,292,2.2,-999.0,99,-99.99,,,1.69,Acu-Link.com,2013-04-04 20:17:00,
2013-04-04 16:33:00,45.0,44.7,29.85,NNW,337,1.7,-999.0,99,-99.99,,,1.69,Acu-Link.com,2013-04-04 20:33:00,
2013-04-04 16:49:00,45.1,44.8,29.84,NNE,22,0.0,-999.0,99,-99.99,,,1.71,Acu-Link.com,2013-04-04 20:49:00,
2013-04-04 17:04:00,45.5,45.2,29.84,North,0,0.0,-999.0,99,-99.99,,,1.72,Acu-Link.com,2013-04-04 21:04:00,
2013-04-04 17:19:00,45.5,45.2,29.83,NNW,337,0.0,-999.0,99,-99.99,,,1.74,Acu-Link.com,2013-04-04 21:19:00,
2013-04-04 17:47:00,45.5,45.2,29.83,North,0,0.0,-999.0,99,-99.99,,,1.74,Acu-Link.com,2013-04-04 21:47:00,
2013-04-04 18:02:00,45.3,45.0,29.83,NW,315,0.0,-999.0,99,-99.99,,,1.74,Acu-Link.com,2013-04-04 22:02:00,
2013-04-04 18:17:00,45.3,45.0,29.82,NNW,337,0.0,-999.0,99,-99.99,,,1.74,Acu-Link.com,2013-04-04 22:17:00,
2013-04-04 18:32:00,45.1,44.8,29.82,NNW,337,0.0,-999.0,99,-99.99,,,1.74,Acu-Link.com,2013-04-04 22:32:00,
2013-04-04 18:47:00,45.1,44.8,29.81,NNW,337,1.7,-999.0,99,-99.99,,,1.74,Acu-Link.com,2013-04-04 22:47:00,
2013-04-04 19:03:00,45.1,44.8,29.82,NW,315,0.0,-999.0,99,-99.99,,,1.74,Acu-Link.com,2013-04-04 23:03:00,
2013-04-04 19:18:00,45.1,44.8,29.82,NNW,337,0.0,-999.0,99,-99.99,,,1.74,Acu-Link.com,2013-04-04 23:18:00,
2013-04-04 20:04:00,45.0,44.7,29.82,ESE,112,0.0,-999.0,99,-99.99,,,1.74,Acu-Link.com,2013-04-05 00:04:00,
2013-04-04 20:19:00,44.8,44.5,29.82,North,0,0.0,-999.0,99,-99.99,,,1.74,Acu-Link.com,2013-04-05 00:19:00,
2013-04-04 20:34:00,44.8,44.5,29.81,NE,45,0.0,-999.0,99,-99.99,,,1.74,Acu-Link.com,2013-04-05 00:34:00,
2013-04-04 20:49:00,44.8,44.5,29.81,South,180,0.0,-999.0,99,-99.99,,,1.74,Acu-Link.com,2013-04-05 00:49:00,
2013-04-04 21:04:00,44.6,44.3,29.80,South,180,0.0,-999.0,99,-99.99,,,1.74,Acu-Link.com,2013-04-05 01:04:00,
2013-04-04 21:19:00,44.6,44.3,29.81,WNW,292,0.0,-999.0,99,-99.99,,,1.74,Acu-Link.com,2013-04-05 01:19:00,
2013-04-04 21:35:00,44.8,44.5,29.81,NNW,337,0.0,-999.0,99,-99.99,,,1.74,Acu-Link.com,2013-04-05 01:35:00,
2013-04-04 21:50:00,44.8,44.5,29.81,NNW,337,0.0,-999.0,99,-99.99,,,1.74,Acu-Link.com,2013-04-05 01:50:00,
2013-04-04 22:05:00,44.6,44.3,29.82,NNW,337,0.0,-999.0,99,-99.99,,,1.74,Acu-Link.com,2013-04-05 02:05:00,
2013-04-04 22:20:00,44.6,44.3,29.82,North,0,0.0,-999.0,99,-99.99,,,1.74,Acu-Link.com,2013-04-05 02:20:00,
2013-04-04 22:35:00,44.4,44.1,29.82,NW,315,2.2,-999.0,99,-99.99,,,1.74,Acu-Link.com,2013-04-05 02:35:00,
2013-04-04 22:50:00,44.4,44.1,29.83,NNW,337,0.0,-999.0,99,-99.99,,,1.74,Acu-Link.com,2013-04-05 02:50:00,
2013-04-04 23:05:00,44.4,44.1,29.83,NW,315,1.7,-999.0,99,-99.99,,,1.74,Acu-Link.com,2013-04-05 03:05:00,
2013-04-04 23:20:00,44.1,43.8,29.82,NNE,22,0.0,-999.0,99,-99.99,,,1.74,Acu-Link.com,2013-04-05 03:20:00,
2013-04-04 23:35:00,43.9,43.6,29.82,NNW,337,0.0,-999.0,99,-99.99,,,1.74,Acu-Link.com,2013-04-05 03:35:00,
2013-04-04 23:51:00,43.7,43.4,29.82,NW,315,3.2,-999.0,99,-99.99,,,1.74,Acu-Link.com,2013-04-05 03:51:00,